Weather Roundup
Issued by NWS Springfield, MO

Home | Current Version | Previous Version | Text Only | Print | Product List | Glossary On
Versions: 1 2 3 4 5 6 7 8 9 10 11 12 13 14 15 16 17 18 19 20 21 22 23 24 25 26 27 28 29 30 31 32 33 34 35 36 37 38 39 40 41 42 43 44 45 46 47 48 49 50
000
NZUS99 KSGF 200057
HRRSGF

HOURLY WEATHER
NATIONAL WEATHER SERVICE SPRINGFIELD MO
700 PM CST THU JAN 19 2017

......SGF CWA......

CITY           SKY/WX    TMP DP  RH WIND       PRES   REMARKS
SPRINGFIELD    CLOUDY    51  49  92 CALM      29.62F
JOPLIN         CLEAR     45  45 100 CALM      29.61F
WEST PLAINS    FOG       49  49 100 SE6       29.68R VSB 1/4
ROLLA          FOG       48  48 100 E7        29.64F VSB 1/2
OSAGE BEACH    CLOUDY    48  48 100 NE3       29.66F FOG
BRANSON        PTCLDY    46  46 100 SE8       29.65S

......SURROUNDING SGF CWA......

CITY           SKY/WX    TMP DP  RH WIND       PRES   REMARKS
CHANUTE        CLOUDY    50  45  83 SE5       29.62S
PARSONS        CLOUDY    50  45  83 S3        29.63R
COFFEYVILLE    CLOUDY    51  46  83 SE6       29.62R
EMPORIA        LGT RAIN  46  45  96 CALM      29.62S FOG
HARRISON AR      N/A     49  48  97 SE6       29.64F

......KANSAS AND MISSOURI......

CITY           SKY/WX    TMP DP  RH WIND       PRES   REMARKS
KANSAS CTY INT CLOUDY    47  43  86 CALM      29.63F
SEDALIA        CLOUDY    49  48  97 SE5       29.66S FOG
ST JOSEPH      CLOUDY    46  45  96 S6        29.65S
ST LOUIS       FOG       48  46  93 E3        29.70F VSB 1/2
SPIRIT OF STL  FOG       46  46 100 E5        29.69F VSB 1/4
WICHITA        CLOUDY    48  44  86 E8        29.59S
TOPEKA         LGT RAIN  47  44  90 CALM      29.64S
OLATHE         CLOUDY    46  46 100 E3        29.64S

......TENNESSEE......

CITY           SKY/WX    TMP DP  RH WIND       PRES   REMARKS
MEMPHIS        NOT AVBL
NASHVILLE      LGT RAIN  60  58  92 SE9       29.73F FOG

......ARKANSAS.......

CITY           SKY/WX    TMP DP  RH WIND       PRES   REMARKS
FAYETTEVILLE   CLEAR     46  45  96 SE3       29.63F
FT SMITH       CLEAR     50  47  89 E6        29.65S
LITTLE ROCK    CLOUDY    52  52 100 S6        29.71S FOG

......OKLAHOMA.......

CITY           SKY/WX    TMP DP  RH WIND       PRES   REMARKS
TULSA          MOCLDY    53  48  83 SE7       29.60F
PONCA CITY     CLOUDY    53  44  71 SE6       29.58S
MCALESTER      PTCLDY    52  47  83 SE6       29.63S
OKLAHOMA CITY  CLEAR     51  46  83 S12       29.55S

......IOWA............

CITY           SKY/WX    TMP DP  RH WIND       PRES   REMARKS
DES MOINES     NOT AVBL
QUAD CITIES    LGT RAIN  38  36  92 E9        29.75S FOG     WCI  31

......ILLINOIS........

CITY           SKY/WX    TMP DP  RH WIND       PRES   REMARKS
QUINCY         NOT AVBL
CHICAGO        LGT RAIN  38  37  97 SE10      29.83S FOG     WCI  31




USA.gov is the U.S. government's official web portal to all federal, state and local government web resources and services.